FW7988 Weather Reports


Display with metric or nautical units.
time (UTC)temp
F
wind
direction
speed
MPH
gust
MPH
rain 1hr
in
rain 24hr
in
rain mn
in
humidity
%
barometer
mb
20260502185311 70 9 4.0 13.0 0.00 0.00 0.00 50
20260502184808 70 334 5.0 9.0 0.00 0.00 0.00 49
20260502184303 70 4 7.0 8.0 0.00 0.00 0.00 51
20260502183800 70 68 6.0 8.0 0.00 0.00 0.00 50
20260502183256 69 65 9.0 10.0 0.00 0.00 0.00 50
20260502182752 68 58 3.0 7.0 0.00 0.00 0.00 51
20260502182247 69 336 7.0 8.0 0.00 0.00 0.00 52
20260502181744 69 7 5.0 9.0 0.00 0.00 0.00 51
20260502181243 69 279 3.0 5.0 0.00 0.00 0.00 54
20260502180740 69 13 4.0 13.0 0.00 0.00 0.00 52
20260502180238 68 334 1.0 5.0 0.00 0.00 0.00 52
20260502170202 65 295 5.0 9.0 0.00 0.00 0.00 60
20260502164148 65 3 9.0 10.0 0.00 0.00 0.00 59
20260502163644 64 70 0.0 5.0 0.00 0.00 0.00 59
20260502163141 65 1 5.0 14.0 0.00 0.00 0.00 58
20260502162638 64 350 9.0 13.0 0.00 0.00 0.00 58
20260502162135 63 339 7.0 11.0 0.00 0.00 0.00 59
20260502161632 64 329 5.0 7.0 0.00 0.00 0.00 57
20260502161129 64 6 6.0 8.0 0.00 0.00 0.00 59
20260502160627 64 28 5.0 7.0 0.00 0.00 0.00 58
20260502160126 64 349 7.0 8.0 0.00 0.00 0.00 57
20260502152040 61 351 8.0 9.0 0.00 0.00 0.00 64
20260502151537 61 62 3.0 6.0 0.00 0.00 0.00 64
20260502151034 60 3 1.0 5.0 0.00 0.00 0.00 68
20260502150531 59 18 6.0 8.0 0.00 0.00 0.00 68
20260502130416 51 346 4.0 5.0 0.00 0.00 0.00 92
20260502123359 48 28 0.0 0.0 0.00 0.00 0.00 95
20260502122856 48 31 0.0 0.0 0.00 0.00 0.00 95
20260502122352 47 31 0.0 0.0 0.00 0.00 0.00 96
20260502121850 47 31 0.0 0.0 0.00 0.00 0.00 96
20260502121347 47 33 0.0 0.0 0.00 0.00 0.00 96
20260502120845 47 35 0.0 0.0 0.00 0.00 0.00 96
20260502120340 47 42 1.0 2.0 0.00 0.00 0.00 96
20260502115838 47 130 1.0 1.0 0.00 0.00 0.00 96
20260502115335 47 125 1.0 2.0 0.00 0.00 0.00 96
20260502114831 47 299 0.0 0.0 0.00 0.00 0.00 96
20260502114329 47 300 0.0 0.0 0.00 0.00 0.00 96
20260502113825 47 300 0.0 1.0 0.00 0.00 0.00 97
20260502113323 47 309 0.0 0.0 0.00 0.00 0.00 96
20260502112821 47 310 0.0 0.0 0.00 0.00 0.00 97
20260502112318 47 320 0.0 1.0 0.00 0.00 0.00 97
20260502111815 47 312 1.0 1.0 0.00 0.00 0.00 97
20260502111313 47 333 1.0 2.0 0.00 0.00 0.00 97
20260502110810 47 305 1.0 2.0 0.00 0.00 0.00 97
20260502110309 47 302 1.0 2.0 0.00 0.00 0.00 97
20260502105806 47 293 0.0 0.0 0.00 0.00 0.00 97
20260502105305 47 293 1.0 1.0 0.00 0.00 0.00 97
20260502104800 47 289 0.0 0.0 0.00 0.00 0.00 97
20260502104257 47 289 0.0 0.0 0.00 0.00 0.00 97
20260502103754 47 289 1.0 2.0 0.00 0.00 0.00 97
20260502103252 47 289 2.0 2.0 0.00 0.00 0.00 97
20260502102749 47 292 2.0 2.0 0.00 0.00 0.00 97
20260502102245 47 300 1.0 2.0 0.00 0.00 0.00 96
20260502101743 48 304 1.0 1.0 0.00 0.00 0.00 96
20260502101241 48 305 1.0 2.0 0.00 0.00 0.00 96
20260502100739 48 308 1.0 1.0 0.00 0.00 0.00 96
20260502100238 48 308 1.0 2.0 0.00 0.00 0.00 96
20260502091212 49 350 4.0 5.0 0.00 0.00 0.00 96
20260502090709 49 346 3.0 6.0 0.00 0.00 0.00 96
20260502090206 49 339 3.0 6.0 0.00 0.00 0.00 96
20260502071101 49 340 3.0 3.0 0.00 0.00 0.00 96
20260502070559 49 328 3.0 3.0 0.00 0.00 0.00 97
20260502070057 49 339 3.0 5.0 0.00 0.00 0.00 97
20260502065555 50 334 3.0 5.0 0.00 0.00 0.00 97
20260502065052 50 336 3.0 5.0 0.00 0.00 0.00 97
20260502064551 50 347 3.0 3.0 0.00 0.00 0.00 97
20260502064048 50 336 2.0 3.0 0.00 0.00 0.00 97
20260502063545 50 347 1.0 2.0 0.00 0.00 0.00 97
20260502063043 50 341 2.0 3.0 0.00 0.00 0.00 97
20260502062540 50 346 3.0 3.0 0.00 0.00 0.00 97
20260502062038 50 335 2.0 3.0 0.00 0.00 0.00 97
20260502061536 50 339 2.0 3.0 0.00 0.00 0.00 97
20260502061033 50 344 3.0 5.0 0.00 0.00 0.00 97
20260502060528 50 326 2.0 3.0 0.00 0.00 0.00 97
20260502060025 50 340 1.0 3.0 0.00 0.00 0.00 97
20260502055522 50 331 2.0 2.0 0.00 0.00 0.00 97
20260502055021 50 335 1.0 2.0 0.00 0.00 0.00 97
20260502054519 50 327 1.0 2.0 0.00 0.00 0.00 97
20260502054016 50 318 2.0 5.0 0.00 0.00 0.00 97
20260502053513 50 320 2.0 2.0 0.00 0.00 0.00 97
20260502053011 50 320 1.0 2.0 0.00 0.00 0.00 96
20260502052509 50 318 1.0 5.0 0.00 0.00 0.00 96
20260502052007 50 330 3.0 3.0 0.00 0.00 0.00 96
20260502051505 50 334 2.0 3.0 0.00 0.00 0.00 96
20260502051001 50 325 3.0 5.0 0.00 0.00 0.00 96
20260502050457 51 322 3.0 3.0 0.00 0.00 0.00 95
20260502045955 51 335 2.0 3.0 0.00 1.49 1.49 95
20260502045452 51 341 3.0 3.0 0.00 1.49 1.49 95
20260502044949 51 336 4.0 5.0 0.00 1.49 1.49 94
20260502044444 51 359 2.0 3.0 0.00 1.49 1.49 94
20260502043941 51 26 2.0 2.0 0.00 1.49 1.49 93
20260502043439 52 14 2.0 5.0 0.00 1.49 1.49 93
20260502042938 52 23 1.0 5.0 0.00 1.49 1.49 93
20260502042436 52 3 3.0 8.0 0.00 1.49 1.49 94
20260502041933 52 357 3.0 3.0 0.00 1.49 1.49 93
20260502041431 52 339 2.0 6.0 0.00 1.49 1.49 93
20260502040927 52 326 3.0 7.0 0.00 1.49 1.49 93
20260502040424 52 343 4.0 7.0 0.00 1.49 1.49 93
20260502035920 52 3 4.0 7.0 0.00 1.49 1.49 93
20260502035417 53 2 5.0 10.0 0.00 1.49 1.49 93
20260502034915 53 22 4.0 9.0 0.00 1.49 1.49 93
20260502034413 53 30 9.0 11.0 0.00 1.49 1.49 94
20260502033911 53 51 6.0 9.0 0.00 1.49 1.49 95
20260502033409 53 9 7.0 9.0 0.00 1.49 1.49 95
20260502032905 53 342 4.0 11.0 0.00 1.49 1.49 95
20260502032401 53 358 5.0 7.0 0.00 1.49 1.49 95
20260502031859 53 347 7.0 10.0 0.00 1.49 1.49 95
20260502031357 53 359 4.0 9.0 0.00 1.49 1.49 95
20260502030855 53 6 5.0 8.0 0.00 1.49 1.49 96
20260502030353 53 331 6.0 8.0 0.00 1.49 1.49 97
20260502025850 52 26 5.0 10.0 0.00 1.49 1.49 97
20260502025347 52 349 6.0 8.0 0.00 1.49 1.49 97
20260502024845 52 0 6.0 10.0 0.00 1.49 1.49 97
20260502024343 52 338 5.0 6.0 0.00 1.49 1.49 97
20260502023840 53 36 4.0 11.0 0.00 1.49 1.49 97
20260502023338 53 38 5.0 11.0 0.00 1.49 1.49 98
20260502022836 52 30 9.0 15.0 0.00 1.49 1.49 98
20260502022332 52 353 4.0 9.0 0.00 1.49 1.49 99
20260502021829 52 20 5.0 8.0 0.00 1.49 1.49 99
20260502021326 52 64 8.0 11.0 0.00 1.49 1.49 99
20260502020823 53 1 11.0 17.0 0.00 1.49 1.49 99
20260502020321 53 347 4.0 8.0 0.00 1.49 1.49 99
20260502015818 52 45 3.0 8.0 0.00 1.49 1.49 99
20260502015314 52 65 3.0 8.0 0.00 1.49 1.49 99
20260502014812 52 39 6.0 11.0 0.00 1.49 1.49 99
20260502014309 52 7 5.0 10.0 0.00 1.49 1.49 99
20260502013805 52 337 4.0 5.0 0.00 1.49 1.49 99
20260502013300 52 28 5.0 7.0 0.00 1.49 1.49 99
20260502012757 52 344 2.0 8.0 0.00 1.49 1.49 99
20260502012255 52 54 3.0 10.0 0.00 1.49 1.49 99
20260502011752 52 7 3.0 8.0 0.00 1.49 1.49 99
20260502011248 52 45 3.0 9.0 0.00 1.49 1.49 99
20260502010746 52 54 3.0 9.0 0.00 1.49 1.49 99
20260502010242 51 34 3.0 8.0 0.00 1.49 1.49 99
20260502005739 51 44 6.0 9.0 0.00 1.49 1.49 99
20260502005237 51 66 5.0 13.0 0.00 1.49 1.49 99
20260502004733 51 17 8.0 11.0 0.00 1.49 1.49 99
20260502004230 51 31 2.0 8.0 0.00 1.49 1.49 99
20260502003728 51 13 9.0 11.0 0.00 1.49 1.49 99
20260502003225 51 25 11.0 17.0 0.00 1.49 1.49 99
20260502002720 52 12 7.0 15.0 0.00 1.49 1.49 99
20260502002218 52 23 5.0 21.0 0.00 1.49 1.49 99
20260502001715 53 32 13.0 16.0 0.00 1.49 1.49 99
20260502001214 53 20 7.0 17.0 0.00 1.49 1.49 99
20260502000710 54 25 6.0 11.0 0.00 1.49 1.49 99
20260502000211 54 332 6.0 13.0 0.00 1.49 1.49 99
20260501235704 54 13 5.0 9.0 0.00 1.49 1.49 99
20260501235200 54 42 4.0 10.0 0.00 1.49 1.49 99
20260501234655 54 353 3.0 11.0 0.00 1.49 1.49 99
20260501234153 54 31 7.0 14.0 0.00 1.49 1.49 99
20260501233651 54 49 7.0 14.0 0.05 1.49 1.49 99
20260501233148 54 9 7.0 13.0 0.00 1.48 1.48 99
20260501232644 54 14 12.0 21.0 0.00 1.48 1.48 99
20260501232142 54 47 5.0 13.0 0.07 1.48 1.48 99
20260501231639 54 337 6.0 15.0 0.07 1.48 1.48 99
20260501231137 54 358 5.0 14.0 0.00 1.47 1.47 99
20260501230635 54 329 8.0 16.0 0.00 1.47 1.47 99
20260501230133 55 0 5.0 10.0 0.00 1.47 1.47 99
20260501225630 54 48 8.0 11.0 0.00 1.47 1.47 99
20260501225126 54 25 5.0 15.0 0.00 1.47 1.47 99
20260501224624 54 351 4.0 9.0 0.00 1.47 1.47 99
20260501224121 55 0 8.0 15.0 0.00 1.47 1.47 99
20260501223617 55 32 8.0 14.0 0.00 1.47 1.47 99
20260501223114 55 344 8.0 21.0 0.00 1.47 1.47 99
20260501222610 55 353 7.0 10.0 0.07 1.47 1.47 99
20260501222107 55 337 11.0 15.0 0.07 1.47 1.47 99
20260501221604 55 339 9.0 11.0 0.00 1.46 1.46 99
20260501221101 55 23 7.0 14.0 0.00 1.46 1.46 99
20260501220559 55 23 7.0 14.0 0.00 1.46 1.46 99
20260501220055 55 324 9.0 13.0 0.00 1.46 1.46 99
20260501215552 55 348 11.0 18.0 0.00 1.46 1.46 99
20260501215047 55 17 11.0 17.0 0.05 1.46 1.46 99
20260501214543 55 356 13.0 18.0 0.05 1.46 1.46 99
20260501214038 55 318 4.0 8.0 0.07 1.45 1.45 99
20260501213536 55 328 6.0 14.0 0.12 1.44 1.44 99
20260501213032 55 33 7.0 18.0 0.24 1.44 1.44 99
20260501212528 55 359 11.0 16.0 0.17 1.42 1.42 99
20260501212026 56 23 9.0 14.0 0.05 1.40 1.40 99
20260501211522 56 302 8.0 11.0 0.12 1.39 1.39 99
20260501211020 56 326 9.0 13.0 0.24 1.39 1.39 99
20260501210516 55 309 7.0 11.0 0.26 1.37 1.37 99
20260501210013 56 327 9.0 9.0 0.14 1.35 1.35 99
20260501205510 56 341 9.0 15.0 0.00 1.33 1.33 99
20260501205008 56 314 6.0 13.0 0.00 1.33 1.33 99
20260501204503 56 357 9.0 11.0 0.00 1.33 1.33 99
20260501203959 56 356 10.0 15.0 0.00 1.33 1.33 99
20260501203456 56 344 7.0 13.0 0.00 1.33 1.33 99
20260501202954 56 340 7.0 13.0 0.00 1.33 1.33 99
20260501202450 56 359 8.0 11.0 0.00 1.33 1.33 99
20260501201946 56 13 11.0 13.0 0.00 1.33 1.33 99
20260501201444 56 349 10.0 14.0 0.00 1.33 1.33 99
20260501200941 56 358 6.0 16.0 0.00 1.33 1.33 99
20260501200438 56 354 13.0 17.0 0.00 1.33 1.33 99
20260501195935 57 338 7.0 13.0 0.00 1.33 1.33 99
20260501195432 57 347 5.0 13.0 0.00 1.33 1.33 99
20260501194927 57 4 7.0 13.0 0.05 1.33 1.33 99
20260501194423 57 337 5.0 14.0 0.05 1.33 1.33 99
20260501193919 57 51 7.0 10.0 0.07 1.32 1.32 99
20260501193418 57 67 2.0 10.0 0.12 1.31 1.31 99
20260501192915 57 55 6.0 10.0 0.19 1.30 1.30 99
20260501192412 57 14 2.0 6.0 0.17 1.29 1.29 99
20260501191909 57 31 0.0 7.0 0.12 1.27 1.27 99
20260501191407 57 41 5.0 7.0 0.12 1.26 1.26 99
20260501190903 57 343 7.0 13.0 0.12 1.25 1.25 99
20260501190359 57 333 11.0 16.0 0.14 1.24 1.24 99
20260501185854 57 12 8.0 14.0 0.07 1.23 1.23 99